Time,TemperatureF,DewpointF,PressureIn,WindDirection,WindDirectionDegrees,WindSpeedMPH,WindSpeedGustMPH,Humidity,HourlyPrecipIn,Conditions,Clouds,dailyrainin,SolarRadiationWatts/m^2,SoftwareType,DateUTC
2013-08-24 00:05:00,75.9,61.9,29.36,SE,126,0.0,0.0,62,0.00,,,0.00,0,Wunderground v.1.15,2013-08-24 06:05:00,
2013-08-24 00:10:00,75.8,61.8,29.36,SE,126,0.0,0.0,62,0.00,,,0.00,0,Wunderground v.1.15,2013-08-24 06:10:00,
2013-08-24 00:15:00,75.8,61.8,29.36,SE,126,0.0,0.0,62,0.00,,,0.00,0,Wunderground v.1.15,2013-08-24 06:15:00,
2013-08-24 00:20:00,75.9,61.5,29.36,SE,126,0.0,0.0,61,0.00,,,0.00,0,Wunderground v.1.15,2013-08-24 06:20:00,
2013-08-24 00:25:00,75.7,61.3,29.35,SE,126,0.0,0.0,61,0.00,,,0.00,0,Wunderground v.1.15,2013-08-24 06:25:00,
2013-08-24 00:31:00,75.7,61.3,29.35,SE,126,0.0,0.0,61,0.00,,,0.00,0,Wunderground v.1.15,2013-08-24 06:31:00,
2013-08-24 00:35:00,75.5,61.6,29.34,SE,126,0.0,0.0,62,0.00,,,0.00,0,Wunderground v.1.15,2013-08-24 06:35:00,
2013-08-24 00:40:00,75.5,61.1,29.34,SE,126,0.0,4.0,61,0.00,,,0.00,0,Wunderground v.1.15,2013-08-24 06:40:00,
2013-08-24 00:45:00,75.4,61.0,29.34,SE,126,0.0,0.0,61,0.00,,,0.00,0,Wunderground v.1.15,2013-08-24 06:45:00,
2013-08-24 00:50:00,75.5,61.1,29.34,SE,126,1.0,1.0,61,0.00,,,0.00,0,Wunderground v.1.15,2013-08-24 06:50:00,
2013-08-24 00:55:00,75.5,61.1,29.33,SE,126,1.0,1.0,61,0.00,,,0.00,0,Wunderground v.1.15,2013-08-24 06:55:00,
2013-08-24 01:01:00,75.8,61.4,29.33,SE,126,1.0,1.0,61,0.00,,,0.00,0,Wunderground v.1.15,2013-08-24 07:01:00,
2013-08-24 01:05:00,75.8,61.8,29.33,SE,126,0.0,1.0,62,0.00,,,0.00,0,Wunderground v.1.15,2013-08-24 07:05:00,
2013-08-24 01:10:00,75.7,62.2,29.33,SE,126,0.0,1.0,63,0.00,,,0.00,0,Wunderground v.1.15,2013-08-24 07:10:00,
2013-08-24 01:15:00,75.6,62.1,29.33,SE,126,0.0,0.0,63,0.00,,,0.00,0,Wunderground v.1.15,2013-08-24 07:15:00,
2013-08-24 01:20:00,75.5,62.0,29.33,SE,126,0.0,0.0,63,0.00,,,0.00,0,Wunderground v.1.15,2013-08-24 07:20:00,
2013-08-24 01:25:00,75.3,61.8,29.32,SE,126,0.0,0.0,63,0.00,,,0.00,0,Wunderground v.1.15,2013-08-24 07:25:00,
2013-08-24 01:30:00,75.2,61.3,29.32,SE,126,0.0,0.0,62,0.00,,,0.00,0,Wunderground v.1.15,2013-08-24 07:30:00,
2013-08-24 01:40:00,75.0,61.1,29.32,SE,126,0.0,2.0,62,0.00,,,0.00,0,Wunderground v.1.15,2013-08-24 07:40:00,
2013-08-24 01:46:00,75.1,61.2,29.32,SE,126,0.0,0.0,62,0.00,,,0.00,0,Wunderground v.1.15,2013-08-24 07:46:00,
2013-08-24 01:50:00,75.0,61.1,29.32,SE,126,0.0,0.0,62,0.00,,,0.00,0,Wunderground v.1.15,2013-08-24 07:50:00,
2013-08-24 01:55:00,75.0,60.6,29.31,SE,126,0.0,1.0,61,0.00,,,0.00,0,Wunderground v.1.15,2013-08-24 07:55:00,
2013-08-24 02:05:00,74.9,61.0,29.31,SE,126,0.0,0.0,62,0.00,,,0.00,0,Wunderground v.1.15,2013-08-24 08:05:00,
2013-08-24 02:10:00,74.9,61.0,29.31,SE,126,0.0,0.0,62,0.00,,,0.00,0,Wunderground v.1.15,2013-08-24 08:10:00,
2013-08-24 02:16:00,75.0,61.1,29.30,SE,125,0.0,0.0,62,0.00,,,0.00,0,Wunderground v.1.15,2013-08-24 08:16:00,
2013-08-24 02:25:00,75.1,61.2,29.30,SE,126,0.0,0.0,62,0.00,,,0.00,0,Wunderground v.1.15,2013-08-24 08:25:00,
2013-08-24 02:30:00,75.0,61.5,29.30,SE,126,0.0,0.0,63,0.00,,,0.00,0,Wunderground v.1.15,2013-08-24 08:30:00,
2013-08-24 02:35:00,75.2,61.3,29.30,SE,126,0.0,0.0,62,0.00,,,0.00,0,Wunderground v.1.15,2013-08-24 08:35:00,
2013-08-24 02:40:00,75.1,61.2,29.30,SE,126,0.0,0.0,62,0.00,,,0.00,0,Wunderground v.1.15,2013-08-24 08:40:00,
2013-08-24 02:45:00,74.9,61.0,29.30,SE,126,0.0,0.0,62,0.00,,,0.00,0,Wunderground v.1.15,2013-08-24 08:45:00,
2013-08-24 02:50:00,74.7,60.8,29.30,SE,126,0.0,0.0,62,0.00,,,0.00,0,Wunderground v.1.15,2013-08-24 08:50:00,
2013-08-24 02:55:00,74.7,60.8,29.30,SE,126,0.0,0.0,62,0.00,,,0.00,0,Wunderground v.1.15,2013-08-24 08:55:00,
2013-08-24 03:05:00,74.6,60.7,29.30,SE,126,0.0,0.0,62,0.00,,,0.00,0,Wunderground v.1.15,2013-08-24 09:05:00,
2013-08-24 03:15:00,74.4,60.5,29.30,SE,126,1.0,1.0,62,0.00,,,0.00,0,Wunderground v.1.15,2013-08-24 09:15:00,
2013-08-24 03:20:00,74.5,60.6,29.30,SE,126,1.0,1.0,62,0.00,,,0.00,0,Wunderground v.1.15,2013-08-24 09:20:00,
2013-08-24 03:25:00,74.4,60.5,29.30,SE,126,0.0,2.0,62,0.00,,,0.00,0,Wunderground v.1.15,2013-08-24 09:25:00,
2013-08-24 03:31:00,74.4,61.0,29.30,SE,126,0.0,2.0,63,0.00,,,0.00,0,Wunderground v.1.15,2013-08-24 09:31:00,
2013-08-24 03:40:00,74.5,61.1,29.30,SE,126,0.0,1.0,63,0.00,,,0.00,0,Wunderground v.1.15,2013-08-24 09:40:00,
2013-08-24 03:45:00,74.6,61.2,29.30,SE,126,0.0,0.0,63,0.00,,,0.00,0,Wunderground v.1.15,2013-08-24 09:45:00,
2013-08-24 03:50:00,74.5,61.5,29.30,SE,126,0.0,0.0,64,0.00,,,0.00,0,Wunderground v.1.15,2013-08-24 09:50:00,
2013-08-24 03:55:00,74.5,61.1,29.30,SE,126,0.0,0.0,63,0.00,,,0.00,0,Wunderground v.1.15,2013-08-24 09:55:00,
2013-08-24 04:01:00,74.4,61.0,29.30,SE,126,0.0,1.0,63,0.00,,,0.00,0,Wunderground v.1.15,2013-08-24 10:01:00,
2013-08-24 04:05:00,74.3,60.9,29.30,SE,126,1.0,1.0,63,0.00,,,0.00,0,Wunderground v.1.15,2013-08-24 10:05:00,
2013-08-24 04:10:00,74.3,60.9,29.30,SE,126,1.0,1.0,63,0.00,,,0.00,0,Wunderground v.1.15,2013-08-24 10:10:00,
2013-08-24 04:15:00,74.6,60.7,29.31,SE,126,0.0,0.0,62,0.00,,,0.00,0,Wunderground v.1.15,2013-08-24 10:15:00,
2013-08-24 04:20:00,74.5,61.1,29.31,SE,126,0.0,0.0,63,0.00,,,0.00,0,Wunderground v.1.15,2013-08-24 10:20:00,
2013-08-24 04:25:00,74.4,60.5,29.31,SE,126,0.0,0.0,62,0.00,,,0.00,0,Wunderground v.1.15,2013-08-24 10:25:00,
2013-08-24 04:30:00,74.3,60.4,29.31,SE,126,0.0,0.0,62,0.00,,,0.00,0,Wunderground v.1.15,2013-08-24 10:30:00,
2013-08-24 04:40:00,74.4,60.1,29.31,SE,126,0.0,0.0,61,0.00,,,0.00,0,Wunderground v.1.15,2013-08-24 10:40:00,
2013-08-24 04:45:00,74.5,60.2,29.32,SE,126,0.0,0.0,61,0.00,,,0.00,0,Wunderground v.1.15,2013-08-24 10:45:00,
2013-08-24 04:55:00,74.4,60.1,29.32,SE,126,0.0,0.0,61,0.00,,,0.00,0,Wunderground v.1.15,2013-08-24 10:55:00,
2013-08-24 05:05:00,74.4,60.1,29.32,SE,126,0.0,0.0,61,0.00,,,0.00,0,Wunderground v.1.15,2013-08-24 11:05:00,
2013-08-24 05:10:00,74.3,60.0,29.32,SE,126,0.0,0.0,61,0.00,,,0.00,0,Wunderground v.1.15,2013-08-24 11:10:00,
2013-08-24 05:15:00,74.3,60.0,29.33,SE,126,0.0,0.0,61,0.00,,,0.00,0,Wunderground v.1.15,2013-08-24 11:15:00,
2013-08-24 05:20:00,74.3,60.0,29.33,SE,126,0.0,0.0,61,0.00,,,0.00,0,Wunderground v.1.15,2013-08-24 11:20:00,
2013-08-24 05:25:00,74.4,60.1,29.33,SE,126,0.0,0.0,61,0.00,,,0.00,0,Wunderground v.1.15,2013-08-24 11:25:00,
2013-08-24 05:31:00,74.4,60.1,29.33,SE,126,0.0,0.0,61,0.00,,,0.00,0,Wunderground v.1.15,2013-08-24 11:31:00,
2013-08-24 05:35:00,74.4,60.1,29.33,SE,126,0.0,0.0,61,0.00,,,0.00,0,Wunderground v.1.15,2013-08-24 11:35:00,
2013-08-24 05:40:00,74.4,59.6,29.34,SE,126,0.0,0.0,60,0.00,,,0.00,0,Wunderground v.1.15,2013-08-24 11:40:00,
2013-08-24 05:45:00,74.3,60.0,29.34,SE,125,0.0,0.0,61,0.00,,,0.00,5,Wunderground v.1.15,2013-08-24 11:45:00,
2013-08-24 05:50:00,74.5,59.7,29.34,SE,126,0.0,0.0,60,0.00,,,0.00,9,Wunderground v.1.15,2013-08-24 11:50:00,
2013-08-24 06:05:00,75.3,60.9,29.34,SE,126,0.0,0.0,61,0.00,,,0.00,21,Wunderground v.1.15,2013-08-24 12:05:00,
2013-08-24 06:10:00,75.3,60.9,29.35,SE,126,0.0,0.0,61,0.00,,,0.00,35,Wunderground v.1.15,2013-08-24 12:10:00,
2013-08-24 06:15:00,75.0,61.1,29.35,SE,126,0.0,0.0,62,0.00,,,0.00,42,Wunderground v.1.15,2013-08-24 12:15:00,
2013-08-24 06:20:00,75.0,61.1,29.35,SE,126,0.0,0.0,62,0.00,,,0.00,51,Wunderground v.1.15,2013-08-24 12:20:00,
2013-08-24 06:25:00,75.5,61.1,29.35,SE,126,0.0,0.0,61,0.00,,,0.00,63,Wunderground v.1.15,2013-08-24 12:25:00,
2013-08-24 06:30:00,75.8,62.3,29.35,SE,126,0.0,0.0,63,0.00,,,0.00,70,Wunderground v.1.15,2013-08-24 12:30:00,
2013-08-24 06:40:00,76.4,62.9,29.36,SE,126,0.0,0.0,63,0.00,,,0.00,90,Wunderground v.1.15,2013-08-24 12:40:00,
2013-08-24 06:45:00,76.8,63.7,29.36,SE,126,0.0,0.0,64,0.00,,,0.00,113,Wunderground v.1.15,2013-08-24 12:45:00,
2013-08-24 06:50:00,76.7,64.9,29.36,SE,126,0.0,0.0,67,0.00,,,0.00,118,Wunderground v.1.15,2013-08-24 12:50:00,
2013-08-24 06:55:00,76.5,65.1,29.37,SE,126,0.0,0.0,68,0.00,,,0.00,128,Wunderground v.1.15,2013-08-24 12:55:00,
2013-08-24 07:05:00,77.2,66.7,29.37,SE,126,0.0,0.0,70,0.00,,,0.00,160,Wunderground v.1.15,2013-08-24 13:05:00,
2013-08-24 07:10:00,77.7,68.7,29.37,SE,126,0.0,0.0,74,0.00,,,0.00,183,Wunderground v.1.15,2013-08-24 13:10:00,
2013-08-24 07:16:00,77.8,68.4,29.37,SE,126,0.0,0.0,73,0.00,,,0.00,199,Wunderground v.1.15,2013-08-24 13:16:00,
2013-08-24 07:20:00,78.3,69.7,29.38,SE,126,0.0,0.0,75,0.00,,,0.00,230,Wunderground v.1.15,2013-08-24 13:20:00,
2013-08-24 07:30:00,79.3,71.5,29.38,SE,126,0.0,0.0,77,0.00,,,0.00,281,Wunderground v.1.15,2013-08-24 13:30:00,
2013-08-24 07:35:00,78.8,70.6,29.38,SE,126,0.0,0.0,76,0.00,,,0.00,424,Wunderground v.1.15,2013-08-24 13:35:00,
2013-08-24 07:40:00,79.4,71.6,29.38,SE,126,0.0,0.0,77,0.00,,,0.00,367,Wunderground v.1.15,2013-08-24 13:40:00,
2013-08-24 07:45:00,81.4,73.5,29.38,SE,126,0.0,0.0,77,0.00,,,0.00,636,Wunderground v.1.15,2013-08-24 13:45:00,
2013-08-24 07:50:00,82.1,74.2,29.38,SE,126,0.0,0.0,77,0.00,,,0.00,687,Wunderground v.1.15,2013-08-24 13:50:00,
2013-08-24 07:55:00,84.7,75.9,29.38,SE,126,0.0,0.0,75,0.00,,,0.00,670,Wunderground v.1.15,2013-08-24 13:55:00,
2013-08-24 08:01:00,85.2,76.4,29.38,SE,126,0.0,0.0,75,0.00,,,0.00,675,Wunderground v.1.15,2013-08-24 14:01:00,
2013-08-24 08:05:00,84.5,74.5,29.39,SE,126,0.0,1.0,72,0.00,,,0.00,306,Wunderground v.1.15,2013-08-24 14:05:00,
2013-08-24 08:10:00,82.9,74.6,29.39,SE,126,1.0,2.0,76,0.00,,,0.00,445,Wunderground v.1.15,2013-08-24 14:10:00,
2013-08-24 08:15:00,82.8,74.5,29.39,SE,126,1.0,2.0,76,0.00,,,0.00,705,Wunderground v.1.15,2013-08-24 14:15:00,
2013-08-24 08:20:00,84.8,75.6,29.39,SE,140,1.0,6.0,74,0.00,,,0.00,802,Wunderground v.1.15,2013-08-24 14:20:00,
2013-08-24 08:31:00,85.6,76.8,29.39,SSE,155,1.0,1.0,75,0.00,,,0.00,621,Wunderground v.1.15,2013-08-24 14:31:00,
2013-08-24 08:35:00,84.3,75.1,29.39,SSE,155,1.0,2.0,74,0.00,,,0.00,722,Wunderground v.1.15,2013-08-24 14:35:00,
2013-08-24 08:40:00,85.8,76.5,29.39,SSE,155,1.0,2.0,74,0.00,,,0.00,679,Wunderground v.1.15,2013-08-24 14:40:00,
2013-08-24 08:46:00,87.8,76.8,29.39,SW,234,1.0,1.0,70,0.00,,,0.00,621,Wunderground v.1.15,2013-08-24 14:46:00,
2013-08-24 08:50:00,87.9,76.5,29.39,SW,234,1.0,1.0,69,0.00,,,0.00,670,Wunderground v.1.15,2013-08-24 14:50:00,
2013-08-24 08:55:00,86.9,76.4,29.39,SW,234,1.0,1.0,71,0.00,,,0.00,686,Wunderground v.1.15,2013-08-24 14:55:00,
2013-08-24 09:05:00,86.6,75.6,29.39,SW,234,1.0,1.0,70,0.00,,,0.00,728,Wunderground v.1.15,2013-08-24 15:05:00,
2013-08-24 09:10:00,88.1,75.8,29.39,WSW,257,1.0,2.0,67,0.00,,,0.00,763,Wunderground v.1.15,2013-08-24 15:10:00,
2013-08-24 09:15:00,88.3,76.4,29.39,West,261,2.0,2.0,68,0.00,,,0.00,846,Wunderground v.1.15,2013-08-24 15:15:00,
2013-08-24 09:20:00,88.6,75.3,29.40,West,260,2.0,3.0,65,0.00,,,0.00,909,Wunderground v.1.15,2013-08-24 15:20:00,
2013-08-24 09:25:00,87.9,75.1,29.39,West,260,2.0,2.0,66,0.00,,,0.00,947,Wunderground v.1.15,2013-08-24 15:25:00,
2013-08-24 09:30:00,87.9,76.5,29.40,West,269,2.0,2.0,69,0.00,,,0.00,418,Wunderground v.1.15,2013-08-24 15:30:00,
2013-08-24 09:35:00,87.4,76.0,29.39,West,264,1.0,3.0,69,0.00,,,0.00,339,Wunderground v.1.15,2013-08-24 15:35:00,
2013-08-24 09:46:00,86.6,75.6,29.39,SW,227,1.0,1.0,70,0.00,,,0.00,415,Wunderground v.1.15,2013-08-24 15:46:00,
2013-08-24 09:55:00,86.9,76.4,29.39,SSE,157,2.0,2.0,71,0.00,,,0.00,856,Wunderground v.1.15,2013-08-24 15:55:00,
2013-08-24 10:05:00,87.9,76.9,29.39,WSW,257,2.0,2.0,70,0.00,,,0.00,478,Wunderground v.1.15,2013-08-24 16:05:00,
2013-08-24 10:10:00,88.6,76.7,29.39,WNW,290,2.0,3.0,68,0.00,,,0.00,1151,Wunderground v.1.15,2013-08-24 16:10:00,
2013-08-24 10:15:00,88.5,76.1,29.39,WSW,244,3.0,3.0,67,0.00,,,0.00,399,Wunderground v.1.15,2013-08-24 16:15:00,
2013-08-24 10:20:00,87.2,76.2,29.39,WNW,297,3.0,3.0,70,0.00,,,0.00,294,Wunderground v.1.15,2013-08-24 16:20:00,
2013-08-24 10:25:00,86.1,75.6,29.39,SSW,205,2.0,2.0,71,0.00,,,0.00,322,Wunderground v.1.15,2013-08-24 16:25:00,
2013-08-24 10:31:00,87.2,76.6,29.39,WSW,253,1.0,2.0,71,0.00,,,0.00,429,Wunderground v.1.15,2013-08-24 16:31:00,
2013-08-24 10:35:00,88.1,75.8,29.39,West,276,1.0,5.0,67,0.00,,,0.00,461,Wunderground v.1.15,2013-08-24 16:35:00,
2013-08-24 10:40:00,88.2,76.3,29.39,NW,304,3.0,5.0,68,0.00,,,0.00,448,Wunderground v.1.15,2013-08-24 16:40:00,
2013-08-24 10:46:00,87.4,76.0,29.39,South,181,2.0,4.0,69,0.00,,,0.00,385,Wunderground v.1.15,2013-08-24 16:46:00,
2013-08-24 10:50:00,87.4,76.8,29.39,WSW,242,2.0,4.0,71,0.00,,,0.00,369,Wunderground v.1.15,2013-08-24 16:50:00,
2013-08-24 10:55:00,86.0,75.9,29.39,South,187,2.0,2.0,72,0.00,,,0.00,396,Wunderground v.1.15,2013-08-24 16:55:00,
2013-08-24 11:05:00,91.7,79.6,29.38,SW,236,1.0,3.0,68,0.00,,,0.00,554,Wunderground v.1.15,2013-08-24 17:05:00,
2013-08-24 11:10:00,89.9,77.9,29.38,SW,214,2.0,3.0,68,0.00,,,0.00,555,Wunderground v.1.15,2013-08-24 17:10:00,
2013-08-24 11:15:00,89.6,76.7,29.38,WSW,258,2.0,5.0,66,0.00,,,0.00,1160,Wunderground v.1.15,2013-08-24 17:15:00,
2013-08-24 11:20:00,88.2,76.7,29.37,WNW,286,3.0,5.0,69,0.00,,,0.00,214,Wunderground v.1.15,2013-08-24 17:20:00,
2013-08-24 11:25:00,87.0,76.5,29.38,West,263,3.0,3.0,71,0.00,,,0.00,195,Wunderground v.1.15,2013-08-24 17:25:00,
2013-08-24 11:30:00,85.7,76.5,29.37,West,261,2.0,3.0,74,0.00,,,0.00,190,Wunderground v.1.15,2013-08-24 17:30:00,
2013-08-24 11:40:00,84.6,75.8,29.37,South,175,2.0,2.0,75,0.00,,,0.00,285,Wunderground v.1.15,2013-08-24 17:40:00,
2013-08-24 11:46:00,85.5,75.9,29.37,West,266,2.0,4.0,73,0.00,,,0.00,179,Wunderground v.1.15,2013-08-24 17:46:00,
2013-08-24 11:50:00,85.7,76.0,29.37,West,260,1.0,4.0,73,0.00,,,0.00,253,Wunderground v.1.15,2013-08-24 17:50:00,
2013-08-24 11:55:00,86.4,76.7,29.36,West,261,1.0,1.0,73,0.00,,,0.00,330,Wunderground v.1.15,2013-08-24 17:55:00,
2013-08-24 12:05:00,86.4,76.7,29.36,West,267,1.0,1.0,73,0.00,,,0.00,230,Wunderground v.1.15,2013-08-24 18:05:00,
2013-08-24 12:10:00,86.4,76.3,29.36,West,267,1.0,1.0,72,0.00,,,0.00,237,Wunderground v.1.15,2013-08-24 18:10:00,
2013-08-24 12:16:00,85.5,75.9,29.36,SSW,205,1.0,2.0,73,0.00,,,0.00,158,Wunderground v.1.15,2013-08-24 18:16:00,
2013-08-24 12:20:00,84.7,75.9,29.35,ESE,105,1.0,2.0,75,0.00,,,0.00,121,Wunderground v.1.15,2013-08-24 18:20:00,
2013-08-24 12:25:00,84.7,75.9,29.35,ESE,105,2.0,2.0,75,0.00,,,0.00,84,Wunderground v.1.15,2013-08-24 18:25:00,
2013-08-24 12:30:00,83.8,75.4,29.35,ESE,105,1.0,1.0,76,0.00,,,0.00,39,Wunderground v.1.15,2013-08-24 18:30:00,
2013-08-24 12:35:00,83.3,74.9,29.35,ESE,105,1.0,1.0,76,0.00,,,0.00,33,Wunderground v.1.15,2013-08-24 18:35:00,
2013-08-24 12:45:00,81.3,72.2,29.36,West,269,1.0,1.0,74,0.94,,,0.03,26,Wunderground v.1.15,2013-08-24 18:45:00,
2013-08-24 12:50:00,80.3,70.9,29.36,WNW,297,1.0,1.0,73,0.30,,,0.06,26,Wunderground v.1.15,2013-08-24 18:50:00,
2013-08-24 12:55:00,79.7,69.0,29.35,WNW,297,1.0,3.0,70,0.55,,,0.09,23,Wunderground v.1.15,2013-08-24 18:55:00,
2013-08-24 13:05:00,78.6,66.7,29.36,West,265,2.0,2.0,67,0.29,,,0.13,23,Wunderground v.1.15,2013-08-24 19:05:00,
2013-08-24 13:10:00,78.4,65.7,29.35,West,263,1.0,4.0,65,0.19,,,0.15,28,Wunderground v.1.15,2013-08-24 19:10:00,
2013-08-24 13:15:00,78.1,64.9,29.35,West,281,2.0,6.0,64,1.52,,,0.20,25,Wunderground v.1.15,2013-08-24 19:15:00,
2013-08-24 13:20:00,77.6,64.5,29.35,WNW,296,3.0,6.0,64,1.10,,,0.29,21,Wunderground v.1.15,2013-08-24 19:20:00,
2013-08-24 13:25:00,77.5,63.9,29.35,WNW,300,3.0,3.0,63,0.87,,,0.37,25,Wunderground v.1.15,2013-08-24 19:25:00,
2013-08-24 13:35:00,77.5,63.0,29.34,WNW,294,1.0,2.0,61,0.38,,,0.45,37,Wunderground v.1.15,2013-08-24 19:35:00,
2013-08-24 13:40:00,77.3,63.3,29.34,West,264,2.0,2.0,62,0.15,,,0.46,30,Wunderground v.1.15,2013-08-24 19:40:00,
2013-08-24 13:45:00,77.3,62.8,29.34,West,264,1.0,1.0,61,0.40,,,0.48,35,Wunderground v.1.15,2013-08-24 19:45:00,
2013-08-24 13:50:00,77.6,63.1,29.34,West,264,1.0,3.0,61,0.24,,,0.50,35,Wunderground v.1.15,2013-08-24 19:50:00,
2013-08-24 13:55:00,77.7,63.2,29.34,West,264,1.0,1.0,61,0.14,,,0.50,37,Wunderground v.1.15,2013-08-24 19:55:00,
2013-08-24 14:05:00,77.5,62.5,29.33,ESE,120,2.0,2.0,60,0.21,,,0.57,53,Wunderground v.1.15,2013-08-24 20:05:00,
2013-08-24 14:10:00,77.5,62.5,29.33,ESE,114,3.0,3.0,60,0.09,,,0.57,53,Wunderground v.1.15,2013-08-24 20:10:00,
2013-08-24 14:15:00,77.6,62.6,29.33,ESE,114,2.0,2.0,60,0.08,,,0.58,46,Wunderground v.1.15,2013-08-24 20:15:00,
2013-08-24 14:20:00,77.6,63.1,29.33,ENE,68,2.0,2.0,61,0.07,,,0.58,49,Wunderground v.1.15,2013-08-24 20:20:00,
2013-08-24 14:25:00,77.7,63.2,29.33,ENE,68,2.0,2.0,61,0.05,,,0.59,54,Wunderground v.1.15,2013-08-24 20:25:00,
2013-08-24 14:31:00,78.0,63.9,29.33,ENE,68,2.0,2.0,62,0.05,,,0.59,65,Wunderground v.1.15,2013-08-24 20:31:00,
2013-08-24 14:35:00,78.1,64.0,29.33,ENE,68,1.0,1.0,62,0.08,,,0.60,86,Wunderground v.1.15,2013-08-24 20:35:00,
2013-08-24 14:41:00,77.6,64.5,29.33,ESE,105,3.0,6.0,64,0.37,,,0.61,88,Wunderground v.1.15,2013-08-24 20:41:00,
2013-08-24 14:51:00,77.9,63.4,29.33,NE,53,4.0,6.0,61,0.53,,,0.69,98,Wunderground v.1.15,2013-08-24 20:51:00,
2013-08-24 14:55:00,77.7,63.6,29.33,East,89,2.0,3.0,62,0.38,,,0.71,102,Wunderground v.1.15,2013-08-24 20:55:00,
2013-08-24 15:06:00,78.0,63.5,29.33,ESE,109,2.0,2.0,61,0.18,,,0.73,100,Wunderground v.1.15,2013-08-24 21:06:00,
2013-08-24 15:16:00,78.1,64.0,29.33,ESE,109,2.0,2.0,62,0.11,,,0.75,97,Wunderground v.1.15,2013-08-24 21:16:00,
2013-08-24 15:20:00,78.7,63.6,29.33,ESE,109,2.0,2.0,60,0.11,,,0.76,98,Wunderground v.1.15,2013-08-24 21:20:00,
2013-08-24 15:25:00,78.6,64.5,29.33,ESE,109,0.0,0.0,62,0.23,,,0.77,105,Wunderground v.1.15,2013-08-24 21:25:00,
2013-08-24 15:30:00,78.7,63.6,29.33,ESE,109,0.0,0.0,60,0.21,,,0.78,104,Wunderground v.1.15,2013-08-24 21:30:00,
2013-08-24 15:35:00,79.0,63.9,29.33,ESE,109,0.0,0.0,60,0.14,,,0.79,107,Wunderground v.1.15,2013-08-24 21:35:00,
2013-08-24 15:40:00,79.1,64.0,29.33,ESE,109,1.0,1.0,60,0.06,,,0.79,86,Wunderground v.1.15,2013-08-24 21:40:00,
2013-08-24 15:45:00,78.9,63.8,29.33,ESE,109,1.0,1.0,60,0.04,,,0.79,70,Wunderground v.1.15,2013-08-24 21:45:00,
2013-08-24 15:50:00,79.0,63.9,29.33,ESE,109,2.0,2.0,60,0.00,,,0.79,69,Wunderground v.1.15,2013-08-24 21:50:00,
2013-08-24 15:55:00,79.2,64.1,29.33,ESE,109,1.0,1.0,60,0.00,,,0.79,63,Wunderground v.1.15,2013-08-24 21:55:00,
2013-08-24 16:05:00,79.3,64.2,29.34,ESE,109,0.0,0.0,60,0.00,,,0.80,47,Wunderground v.1.15,2013-08-24 22:05:00,
2013-08-24 16:10:00,79.4,64.3,29.34,ESE,109,0.0,0.0,60,0.00,,,0.80,35,Wunderground v.1.15,2013-08-24 22:10:00,
2013-08-24 16:15:00,79.2,64.6,29.34,ESE,109,0.0,0.0,61,0.04,,,0.80,18,Wunderground v.1.15,2013-08-24 22:15:00,
2013-08-24 16:25:00,79.2,64.1,29.34,ESE,109,0.0,0.0,60,0.04,,,0.80,14,Wunderground v.1.15,2013-08-24 22:25:00,
2013-08-24 16:31:00,78.9,63.8,29.34,ESE,109,0.0,1.0,60,0.00,,,0.80,14,Wunderground v.1.15,2013-08-24 22:31:00,
2013-08-24 16:35:00,78.6,63.6,29.34,ESE,109,0.0,1.0,60,0.00,,,0.80,11,Wunderground v.1.15,2013-08-24 22:35:00,
2013-08-24 16:40:00,78.1,63.6,29.35,ESE,109,1.0,2.0,61,0.00,,,0.80,7,Wunderground v.1.15,2013-08-24 22:40:00,
2013-08-24 16:45:00,77.7,63.2,29.35,ENE,71,2.0,4.0,61,2.92,,,0.92,5,Wunderground v.1.15,2013-08-24 22:45:00,
2013-08-24 16:50:00,77.2,62.2,29.35,ENE,71,2.0,4.0,60,2.09,,,1.06,5,Wunderground v.1.15,2013-08-24 22:50:00,
2013-08-24 16:55:00,77.1,62.1,29.36,ENE,71,2.0,2.0,60,0.84,,,1.10,0,Wunderground v.1.15,2013-08-24 22:55:00,
2013-08-24 17:00:00,76.6,62.1,29.36,East,88,2.0,3.0,61,0.51,,,1.15,0,Wunderground v.1.15,2013-08-24 23:00:00,
2013-08-24 17:06:00,76.0,61.6,29.37,ENE,63,2.0,3.0,61,0.34,,,1.17,0,Wunderground v.1.15,2013-08-24 23:06:00,
2013-08-24 17:16:00,75.7,61.3,29.37,ESE,105,2.0,2.0,61,0.78,,,1.25,0,Wunderground v.1.15,2013-08-24 23:16:00,
2013-08-24 17:20:00,75.8,60.9,29.37,ESE,105,1.0,1.0,60,0.99,,,1.31,0,Wunderground v.1.15,2013-08-24 23:20:00,
2013-08-24 17:26:00,75.8,60.9,29.37,ESE,105,0.0,1.0,60,0.67,,,1.37,0,Wunderground v.1.15,2013-08-24 23:26:00,
2013-08-24 17:30:00,75.7,60.8,29.38,ESE,105,0.0,0.0,60,0.57,,,1.40,0,Wunderground v.1.15,2013-08-24 23:30:00,
2013-08-24 17:35:00,75.7,60.8,29.38,ESE,105,0.0,1.0,60,0.63,,,1.44,0,Wunderground v.1.15,2013-08-24 23:35:00,
2013-08-24 17:40:00,75.7,60.8,29.38,East,89,1.0,1.0,60,0.65,,,1.48,0,Wunderground v.1.15,2013-08-24 23:40:00,
2013-08-24 17:45:00,75.5,60.6,29.38,East,91,2.0,2.0,60,1.43,,,1.58,0,Wunderground v.1.15,2013-08-24 23:45:00,
2013-08-24 17:50:00,75.1,60.3,29.38,ESE,117,3.0,3.0,60,1.11,,,1.67,0,Wunderground v.1.15,2013-08-24 23:50:00,
2013-08-24 17:55:00,74.7,59.9,29.39,ENE,74,3.0,3.0,60,0.30,,,1.70,0,Wunderground v.1.15,2013-08-24 23:55:00,
2013-08-24 18:01:00,74.4,59.6,29.39,ENE,74,2.0,2.0,60,0.17,,,1.71,0,Wunderground v.1.15,2013-08-25 00:01:00,
2013-08-24 18:05:00,74.7,59.9,29.39,ENE,74,1.0,2.0,60,0.13,,,1.72,0,Wunderground v.1.15,2013-08-25 00:05:00,
2013-08-24 18:11:00,74.5,59.7,29.40,ENE,74,0.0,2.0,60,0.12,,,1.73,0,Wunderground v.1.15,2013-08-25 00:11:00,
2013-08-24 18:16:00,74.8,60.0,29.40,ENE,74,0.0,0.0,60,0.11,,,1.73,0,Wunderground v.1.15,2013-08-25 00:16:00,
2013-08-24 18:25:00,74.6,59.8,29.41,ENE,74,0.0,0.0,60,0.15,,,1.76,0,Wunderground v.1.15,2013-08-25 00:25:00,
2013-08-24 18:35:00,74.6,59.8,29.41,ENE,74,0.0,0.0,60,0.23,,,1.78,0,Wunderground v.1.15,2013-08-25 00:35:00,
2013-08-24 18:41:00,74.8,60.0,29.41,ENE,74,0.0,0.0,60,0.22,,,1.80,0,Wunderground v.1.15,2013-08-25 00:41:00,
2013-08-24 18:45:00,74.8,60.0,29.41,ENE,74,0.0,0.0,60,0.17,,,1.80,0,Wunderground v.1.15,2013-08-25 00:45:00,
2013-08-24 18:50:00,74.9,60.1,29.42,ENE,74,0.0,0.0,60,0.27,,,1.82,0,Wunderground v.1.15,2013-08-25 00:50:00,
2013-08-24 18:55:00,74.6,59.8,29.42,ENE,74,0.0,0.0,60,0.31,,,1.84,0,Wunderground v.1.15,2013-08-25 00:55:00,
2013-08-24 19:01:00,74.8,60.0,29.42,ENE,74,0.0,0.0,60,0.23,,,1.86,0,Wunderground v.1.15,2013-08-25 01:01:00,
2013-08-24 19:06:00,74.7,59.9,29.42,ENE,74,0.0,0.0,60,0.27,,,1.87,0,Wunderground v.1.15,2013-08-25 01:06:00,
2013-08-24 19:10:00,74.5,59.7,29.42,ENE,74,0.0,0.0,60,0.27,,,1.89,0,Wunderground v.1.15,2013-08-25 01:10:00,
2013-08-24 19:15:00,74.8,60.0,29.42,ENE,74,0.0,0.0,60,0.18,,,1.91,0,Wunderground v.1.15,2013-08-25 01:15:00,
2013-08-24 19:20:00,74.7,59.9,29.42,ENE,74,0.0,0.0,60,0.13,,,1.91,0,Wunderground v.1.15,2013-08-25 01:20:00,
2013-08-24 19:25:00,74.8,60.0,29.42,ENE,74,0.0,0.0,60,0.11,,,1.91,0,Wunderground v.1.15,2013-08-25 01:25:00,
2013-08-24 19:31:00,74.7,59.9,29.42,ENE,74,0.0,0.0,60,0.10,,,1.92,0,Wunderground v.1.15,2013-08-25 01:31:00,
2013-08-24 19:36:00,74.8,60.0,29.42,ENE,74,0.0,0.0,60,0.08,,,1.93,0,Wunderground v.1.15,2013-08-25 01:36:00,
2013-08-24 19:40:00,74.8,60.0,29.42,ENE,74,0.0,0.0,60,0.12,,,1.94,0,Wunderground v.1.15,2013-08-25 01:40:00,
2013-08-24 19:45:00,74.8,60.0,29.42,ENE,74,0.0,0.0,60,0.09,,,1.94,0,Wunderground v.1.15,2013-08-25 01:45:00,
2013-08-24 19:50:00,74.6,59.8,29.42,ENE,74,0.0,0.0,60,0.09,,,1.94,0,Wunderground v.1.15,2013-08-25 01:50:00,
2013-08-24 19:55:00,74.6,59.8,29.42,ENE,74,0.0,0.0,60,0.08,,,1.95,0,Wunderground v.1.15,2013-08-25 01:55:00,
2013-08-24 20:05:00,74.5,59.7,29.42,ENE,74,0.0,0.0,60,0.08,,,1.96,0,Wunderground v.1.15,2013-08-25 02:05:00,
2013-08-24 20:16:00,74.5,59.7,29.42,ENE,74,0.0,0.0,60,0.04,,,1.96,0,Wunderground v.1.15,2013-08-25 02:16:00,
2013-08-24 20:20:00,74.8,60.0,29.43,ENE,74,0.0,0.0,60,0.00,,,1.96,0,Wunderground v.1.15,2013-08-25 02:20:00,
2013-08-24 20:25:00,74.7,59.9,29.43,ENE,74,0.0,0.0,60,0.00,,,1.97,0,Wunderground v.1.15,2013-08-25 02:25:00,
2013-08-24 20:30:00,74.5,59.7,29.42,ENE,74,0.0,0.0,60,0.00,,,1.97,0,Wunderground v.1.15,2013-08-25 02:30:00,
2013-08-24 20:35:00,74.4,59.6,29.42,ENE,74,0.0,0.0,60,0.00,,,1.97,0,Wunderground v.1.15,2013-08-25 02:35:00,
2013-08-24 20:41:00,74.4,59.6,29.42,ENE,74,0.0,0.0,60,0.00,,,1.97,0,Wunderground v.1.15,2013-08-25 02:41:00,
2013-08-24 20:45:00,74.5,59.7,29.42,ENE,74,0.0,0.0,60,0.00,,,1.97,0,Wunderground v.1.15,2013-08-25 02:45:00,
2013-08-24 20:50:00,74.6,59.8,29.42,ENE,74,0.0,0.0,60,0.00,,,1.97,0,Wunderground v.1.15,2013-08-25 02:50:00,
2013-08-24 20:55:00,74.5,59.7,29.42,ENE,74,0.0,0.0,60,0.00,,,1.97,0,Wunderground v.1.15,2013-08-25 02:55:00,
2013-08-24 21:01:00,74.5,59.7,29.42,ENE,74,0.0,0.0,60,0.00,,,1.97,0,Wunderground v.1.15,2013-08-25 03:01:00,
2013-08-24 21:05:00,74.5,59.7,29.42,ENE,74,0.0,0.0,60,0.00,,,1.97,0,Wunderground v.1.15,2013-08-25 03:05:00,
2013-08-24 21:10:00,74.5,59.7,29.42,ENE,74,0.0,0.0,60,0.00,,,1.97,0,Wunderground v.1.15,2013-08-25 03:10:00,
2013-08-24 21:15:00,74.6,59.8,29.42,ENE,74,0.0,0.0,60,0.00,,,1.97,0,Wunderground v.1.15,2013-08-25 03:15:00,
2013-08-24 21:21:00,74.2,59.4,29.42,ENE,74,0.0,0.0,60,0.00,,,1.97,0,Wunderground v.1.15,2013-08-25 03:21:00,
2013-08-24 21:25:00,74.2,59.4,29.43,ENE,74,0.0,0.0,60,0.00,,,1.97,0,Wunderground v.1.15,2013-08-25 03:25:00,
2013-08-24 21:30:00,74.1,59.3,29.43,ENE,74,0.0,0.0,60,0.00,,,1.97,0,Wunderground v.1.15,2013-08-25 03:30:00,
2013-08-24 21:35:00,74.2,59.4,29.43,ENE,74,0.0,0.0,60,0.00,,,1.97,0,Wunderground v.1.15,2013-08-25 03:35:00,
2013-08-24 21:40:00,74.2,59.4,29.43,ENE,74,0.0,0.0,60,0.00,,,1.97,0,Wunderground v.1.15,2013-08-25 03:40:00,
2013-08-24 21:45:00,74.4,59.6,29.43,ENE,74,0.0,0.0,60,0.00,,,1.97,0,Wunderground v.1.15,2013-08-25 03:45:00,
2013-08-24 21:51:00,74.2,59.4,29.43,ENE,74,0.0,0.0,60,0.00,,,1.97,0,Wunderground v.1.15,2013-08-25 03:51:00,
2013-08-24 21:55:00,73.8,59.0,29.42,ENE,74,0.0,0.0,60,0.00,,,1.97,0,Wunderground v.1.15,2013-08-25 03:55:00,
2013-08-24 22:05:00,74.1,59.3,29.42,ENE,74,0.0,0.0,60,0.00,,,1.97,0,Wunderground v.1.15,2013-08-25 04:05:00,
2013-08-24 22:10:00,74.1,59.3,29.42,ENE,74,0.0,0.0,60,0.00,,,1.97,0,Wunderground v.1.15,2013-08-25 04:10:00,
2013-08-24 22:16:00,74.0,59.2,29.42,ENE,74,0.0,0.0,60,0.00,,,1.97,0,Wunderground v.1.15,2013-08-25 04:16:00,
2013-08-24 22:20:00,74.1,59.3,29.42,ENE,74,0.0,0.0,60,0.00,,,1.97,0,Wunderground v.1.15,2013-08-25 04:20:00,
2013-08-24 22:25:00,74.2,59.4,29.43,ENE,74,0.0,0.0,60,0.00,,,1.97,0,Wunderground v.1.15,2013-08-25 04:25:00,
2013-08-24 22:30:00,73.9,59.1,29.43,ENE,74,0.0,0.0,60,0.00,,,1.97,0,Wunderground v.1.15,2013-08-25 04:30:00,
2013-08-24 22:36:00,73.9,59.1,29.42,ENE,74,0.0,0.0,60,0.00,,,1.97,0,Wunderground v.1.15,2013-08-25 04:36:00,
2013-08-24 22:45:00,73.8,59.0,29.43,ENE,74,0.0,0.0,60,0.00,,,1.97,0,Wunderground v.1.15,2013-08-25 04:45:00,
2013-08-24 22:50:00,73.7,58.9,29.43,ENE,74,0.0,0.0,60,0.00,,,1.97,0,Wunderground v.1.15,2013-08-25 04:50:00,
2013-08-24 23:05:00,73.8,59.0,29.43,ENE,74,0.0,0.0,60,0.00,,,1.97,0,Wunderground v.1.15,2013-08-25 05:05:00,
2013-08-24 23:10:00,73.6,58.9,29.43,ENE,74,0.0,0.0,60,0.00,,,1.97,0,Wunderground v.1.15,2013-08-25 05:10:00,
2013-08-24 23:15:00,73.8,59.0,29.43,ENE,74,0.0,0.0,60,0.00,,,1.97,0,Wunderground v.1.15,2013-08-25 05:15:00,
2013-08-24 23:20:00,73.9,59.1,29.42,ENE,74,0.0,0.0,60,0.00,,,1.97,0,Wunderground v.1.15,2013-08-25 05:20:00,
2013-08-24 23:25:00,73.8,59.0,29.42,ENE,74,0.0,0.0,60,0.00,,,1.97,0,Wunderground v.1.15,2013-08-25 05:25:00,
2013-08-24 23:30:00,73.8,59.0,29.42,ENE,74,0.0,0.0,60,0.00,,,1.97,0,Wunderground v.1.15,2013-08-25 05:30:00,
2013-08-24 23:35:00,73.8,59.0,29.42,ENE,74,0.0,0.0,60,0.00,,,1.97,0,Wunderground v.1.15,2013-08-25 05:35:00,
2013-08-24 23:40:00,73.8,59.0,29.42,ENE,74,0.0,0.0,60,0.00,,,1.97,0,Wunderground v.1.15,2013-08-25 05:40:00,
2013-08-24 23:46:00,73.8,59.0,29.42,ENE,74,0.0,0.0,60,0.00,,,1.97,0,Wunderground v.1.15,2013-08-25 05:46:00,
2013-08-24 23:55:00,73.8,59.0,29.42,ENE,74,0.0,0.0,60,0.00,,,1.97,0,Wunderground v.1.15,2013-08-25 05:55:00,